owner,sensor,date,latitude,longitude,vertical_datum,wind_speed,wind_to_direction,wind_speed_of_gust,qcFlag 
COMPS,ioos:station:USF.COMPS:CAM:1,2014-07-01T00:00:00Z,27.7650,-82.6490,10.0,1.79,2.5,3.23,'1111122,1111122,1111122' 
COMPS,ioos:station:USF.COMPS:CAM:1,2014-07-01T00:06:00Z,27.7650,-82.6490,10.0,2.53,332.85,6.17,'1111122,1111122,1111122' 
COMPS,ioos:station:USF.COMPS:CAM:1,2014-07-01T00:12:00Z,27.7650,-82.6490,10.0,1.98,342.79,5.58,'1111122,1111122,1111122' 
COMPS,ioos:station:USF.COMPS:CAM:1,2014-07-01T00:18:00Z,27.7650,-82.6490,10.0,2.08,329.32,4.5,'1111122,1111122,1111122' 
COMPS,ioos:station:USF.COMPS:CAM:1,2014-07-01T00:24:00Z,27.7650,-82.6490,10.0,1.88,290.43,2.84,'1111122,1111122,1111122' 
COMPS,ioos:station:USF.COMPS:CAM:1,2014-07-01T00:30:00Z,27.7650,-82.6490,10.0,1.52,274.93,3.13,'1111122,1111122,1111122' 
COMPS,ioos:station:USF.COMPS:CAM:1,2014-07-01T00:36:00Z,27.7650,-82.6490,10.0,0.77,266.02,1.86,'1111122,1111122,1111122' 
COMPS,ioos:station:USF.COMPS:CAM:1,2014-07-01T00:42:00Z,27.7650,-82.6490,10.0,0.72,262.35,1.86,'1111122,1111122,1111122' 
COMPS,ioos:station:USF.COMPS:CAM:1,2014-07-01T00:48:00Z,27.7650,-82.6490,10.0,0.87,262.19,2.25,'1111122,1111122,1111122' 
COMPS,ioos:station:USF.COMPS:CAM:1,2014-07-01T00:54:00Z,27.7650,-82.6490,10.0,0.92,267.94,1.96,'1111122,1111122,1111122' 
COMPS,ioos:station:USF.COMPS:CAM:1,2014-07-01T01:00:00Z,27.7650,-82.6490,10.0,0.66,247.83,1.76,'1111122,1111122,1111122' 
COMPS,ioos:station:USF.COMPS:CAM:1,2014-07-01T01:06:00Z,27.7650,-82.6490,10.0,0.88,260.89,2.05,'1111122,1111122,1111122' 
COMPS,ioos:station:USF.COMPS:CAM:1,2014-07-01T01:12:00Z,27.7650,-82.6490,10.0,1.05,271.99,1.66,'1111122,1111122,1111122' 
COMPS,ioos:station:USF.COMPS:CAM:1,2014-07-01T01:18:00Z,27.7650,-82.6490,10.0,1.18,274.9,1.86,'1111122,1111122,1111122' 
COMPS,ioos:station:USF.COMPS:CAM:1,2014-07-01T01:24:00Z,27.7650,-82.6490,10.0,1.53,264.42,2.94,'1111122,1111122,1111122' 
COMPS,ioos:station:USF.COMPS:CAM:1,2014-07-01T01:30:00Z,27.7650,-82.6490,10.0,1.75,271.68,3.23,'1111122,1111122,1111122' 
COMPS,ioos:station:USF.COMPS:CAM:1,2014-07-01T01:36:00Z,27.7650,-82.6490,10.0,2.07,269.63,3.33,'1111122,1111122,1111122' 
COMPS,ioos:station:USF.COMPS:CAM:1,2014-07-01T01:42:00Z,27.7650,-82.6490,10.0,2.13,274.79,3.62,'1111122,1111122,1111122' 
COMPS,ioos:station:USF.COMPS:CAM:1,2014-07-01T01:48:00Z,27.7650,-82.6490,10.0,1.32,265.76,3.52,'1111122,1111122,1111122' 
COMPS,ioos:station:USF.COMPS:CAM:1,2014-07-01T01:54:00Z,27.7650,-82.6490,10.0,1.15,271.54,2.35,'1111122,1111122,1111122' 
COMPS,ioos:station:USF.COMPS:CAM:1,2014-07-01T02:00:00Z,27.7650,-82.6490,10.0,1.34,279.81,1.96,'1111122,1111122,1111122' 
COMPS,ioos:station:USF.COMPS:CAM:1,2014-07-01T02:06:00Z,27.7650,-82.6490,10.0,1.24,291.71,2.05,'1111122,1111122,1111122' 
COMPS,ioos:station:USF.COMPS:CAM:1,2014-07-01T02:12:00Z,27.7650,-82.6490,10.0,1.61,294.17,2.74,'1111122,1111122,1111122' 
COMPS,ioos:station:USF.COMPS:CAM:1,2014-07-01T02:18:00Z,27.7650,-82.6490,10.0,1.44,279.82,2.94,'1111122,1111122,1111122' 
COMPS,ioos:station:USF.COMPS:CAM:1,2014-07-01T02:24:00Z,27.7650,-82.6490,10.0,1.11,316.54,2.94,'1111122,1111122,1111122' 
COMPS,ioos:station:USF.COMPS:CAM:1,2014-07-01T02:30:00Z,27.7650,-82.6490,10.0,1.44,288.67,3.13,'1111122,1111122,1111122' 
COMPS,ioos:station:USF.COMPS:CAM:1,2014-07-01T02:36:00Z,27.7650,-82.6490,10.0,1.72,294.44,2.94,'1111122,1111122,1111122' 
COMPS,ioos:station:USF.COMPS:CAM:1,2014-07-01T02:42:00Z,27.7650,-82.6490,10.0,1.46,290.24,3.03,'1111122,1111122,1111122' 
COMPS,ioos:station:USF.COMPS:CAM:1,2014-07-01T02:48:00Z,27.7650,-82.6490,10.0,1.24,288.72,2.64,'1111122,1111122,1111122' 
COMPS,ioos:station:USF.COMPS:CAM:1,2014-07-01T02:54:00Z,27.7650,-82.6490,10.0,1.6,285.58,3.33,'1111122,1111122,1111122' 
COMPS,ioos:station:USF.COMPS:CAM:1,2014-07-01T03:00:00Z,27.7650,-82.6490,10.0,0.34,290.61,0.97,'1111122,1111122,1111122' 
COMPS,ioos:station:USF.COMPS:CAM:1,2014-07-01T03:06:00Z,27.7650,-82.6490,10.0,0.56,284.85,1.07,'1111122,1111122,1111122' 
COMPS,ioos:station:USF.COMPS:CAM:1,2014-07-01T03:12:00Z,27.7650,-82.6490,10.0,0.2,260.36,0.88,'1111122,1111122,1111122' 
COMPS,ioos:station:USF.COMPS:CAM:1,2014-07-01T03:18:00Z,27.7650,-82.6490,10.0,0.28,244.54,0.58,'1111122,1111122,1111122' 
COMPS,ioos:station:USF.COMPS:CAM:1,2014-07-01T03:24:00Z,27.7650,-82.6490,10.0,0.2,254.17,0.88,'1111122,1111122,1111122' 
COMPS,ioos:station:USF.COMPS:CAM:1,2014-07-01T03:30:00Z,27.7650,-82.6490,10.0,0.26,236.27,0.58,'1111122,1111122,1111122' 
COMPS,ioos:station:USF.COMPS:CAM:1,2014-07-01T03:36:00Z,27.7650,-82.6490,10.0,0.28,242.71,0.68,'1111122,1111122,1111122' 
COMPS,ioos:station:USF.COMPS:CAM:1,2014-07-01T03:42:00Z,27.7650,-82.6490,10.0,0.58,256.64,1.47,'1111122,1111122,1111122' 
COMPS,ioos:station:USF.COMPS:CAM:1,2014-07-01T03:48:00Z,27.7650,-82.6490,10.0,0.24,266.08,1.47,'1111122,1111122,1111122' 
COMPS,ioos:station:USF.COMPS:CAM:1,2014-07-01T03:54:00Z,27.7650,-82.6490,10.0,0.52,277.25,1.76,'1111122,1111122,1111122' 
COMPS,ioos:station:USF.COMPS:CAM:1,2014-07-01T04:00:00Z,27.7650,-82.6490,10.0,0.43,278.94,0.97,'1111122,1111122,1111122' 
COMPS,ioos:station:USF.COMPS:CAM:1,2014-07-01T04:06:00Z,27.7650,-82.6490,10.0,0.65,271.54,1.47,'1111122,1111122,1111122' 
COMPS,ioos:station:USF.COMPS:CAM:1,2014-07-01T04:12:00Z,27.7650,-82.6490,10.0,0.79,290.71,1.56,'1111122,1111122,1111122' 
COMPS,ioos:station:USF.COMPS:CAM:1,2014-07-01T04:18:00Z,27.7650,-82.6490,10.0,0.18,321.53,0.88,'1111122,1111122,1111122' 
COMPS,ioos:station:USF.COMPS:CAM:1,2014-07-01T04:24:00Z,27.7650,-82.6490,10.0,0.26,300.12,1.07,'1111122,1111122,1111122' 
COMPS,ioos:station:USF.COMPS:CAM:1,2014-07-01T04:30:00Z,27.7650,-82.6490,10.0,0.73,347.96,2.05,'1111122,1111122,1111122' 
COMPS,ioos:station:USF.COMPS:CAM:1,2014-07-01T04:36:00Z,27.7650,-82.6490,10.0,1.0,342.7,2.25,'1111122,1111122,1111122' 
COMPS,ioos:station:USF.COMPS:CAM:1,2014-07-01T04:42:00Z,27.7650,-82.6490,10.0,0.89,337.92,2.15,'1111122,1111122,1111122' 
COMPS,ioos:station:USF.COMPS:CAM:1,2014-07-01T04:48:00Z,27.7650,-82.6490,10.0,0.53,325.73,1.56,'1111122,1111122,1111122' 
COMPS,ioos:station:USF.COMPS:CAM:1,2014-07-01T04:54:00Z,27.7650,-82.6490,10.0,0.71,331.41,2.45,'1111122,1111122,1111122' 
COMPS,ioos:station:USF.COMPS:CAM:1,2014-07-01T05:00:00Z,27.7650,-82.6490,10.0,0.27,8.24,1.27,'1111122,1111122,1111122' 
COMPS,ioos:station:USF.COMPS:CAM:1,2014-07-01T05:06:00Z,27.7650,-82.6490,10.0,0.2,40.18,0.88,'1111122,1111122,1111122' 
COMPS,ioos:station:USF.COMPS:CAM:1,2014-07-01T05:12:00Z,27.7650,-82.6490,10.0,0.62,39.72,1.66,'1111122,1111122,1111122' 
COMPS,ioos:station:USF.COMPS:CAM:1,2014-07-01T05:18:00Z,27.7650,-82.6490,10.0,0.78,19.16,1.56,'1111122,1111122,1111122' 
COMPS,ioos:station:USF.COMPS:CAM:1,2014-07-01T05:24:00Z,27.7650,-82.6490,10.0,0.55,25.63,1.37,'1111122,1111122,1111122' 
COMPS,ioos:station:USF.COMPS:CAM:1,2014-07-01T05:30:00Z,27.7650,-82.6490,10.0,0.51,3.71,1.47,'1111122,1111122,1111122' 
COMPS,ioos:station:USF.COMPS:CAM:1,2014-07-01T05:36:00Z,27.7650,-82.6490,10.0,0.47,2.18,1.27,'1111122,1111122,1111122' 
COMPS,ioos:station:USF.COMPS:CAM:1,2014-07-01T05:42:00Z,27.7650,-82.6490,10.0,0.63,327.13,1.56,'1111122,1111122,1111122' 
COMPS,ioos:station:USF.COMPS:CAM:1,2014-07-01T05:48:00Z,27.7650,-82.6490,10.0,0.59,287.6,1.27,'1111122,1111122,1111122' 
COMPS,ioos:station:USF.COMPS:CAM:1,2014-07-01T05:54:00Z,27.7650,-82.6490,10.0,0.56,7.52,1.47,'1111122,1111122,1111122' 
COMPS,ioos:station:USF.COMPS:CAM:1,2014-07-01T06:00:00Z,27.7650,-82.6490,10.0,0.44,19.43,1.17,'1111122,1111122,1111122' 
COMPS,ioos:station:USF.COMPS:CAM:1,2014-07-01T06:06:00Z,27.7650,-82.6490,10.0,0.51,22.02,1.86,'1111122,1111122,1111122' 
COMPS,ioos:station:USF.COMPS:CAM:1,2014-07-01T06:12:00Z,27.7650,-82.6490,10.0,0.34,29.31,1.07,'1111122,1111122,1111122' 
COMPS,ioos:station:USF.COMPS:CAM:1,2014-07-01T06:18:00Z,27.7650,-82.6490,10.0,0.38,46.95,1.17,'1111122,1111122,1111122' 
COMPS,ioos:station:USF.COMPS:CAM:1,2014-07-01T06:24:00Z,27.7650,-82.6490,10.0,0.25,21.72,0.97,'1111122,1111122,1111122' 
COMPS,ioos:station:USF.COMPS:CAM:1,2014-07-01T06:30:00Z,27.7650,-82.6490,10.0,0.16,291.16,0.49,'1111122,1111122,1111122' 
COMPS,ioos:station:USF.COMPS:CAM:1,2014-07-01T06:36:00Z,27.7650,-82.6490,10.0,0.22,284.13,0.68,'1111122,1111122,1111122' 
COMPS,ioos:station:USF.COMPS:CAM:1,2014-07-01T06:42:00Z,27.7650,-82.6490,10.0,0.2,288.03,0.68,'1111122,1111122,1111122' 
COMPS,ioos:station:USF.COMPS:CAM:1,2014-07-01T06:48:00Z,27.7650,-82.6490,10.0,0.24,277.97,0.78,'1111122,1111122,1111122' 
COMPS,ioos:station:USF.COMPS:CAM:1,2014-07-01T06:54:00Z,27.7650,-82.6490,10.0,0.17,300.21,0.58,'1111122,1111122,1111122' 
COMPS,ioos:station:USF.COMPS:CAM:1,2014-07-01T07:00:00Z,27.7650,-82.6490,10.0,0.28,64.74,0.88,'1111122,1111122,1111122' 
COMPS,ioos:station:USF.COMPS:CAM:1,2014-07-01T07:06:00Z,27.7650,-82.6490,10.0,0.32,298.87,1.17,'1111122,1111122,1111122' 
COMPS,ioos:station:USF.COMPS:CAM:1,2014-07-01T07:12:00Z,27.7650,-82.6490,10.0,0.59,275.36,1.27,'1111122,1111122,1111122' 
COMPS,ioos:station:USF.COMPS:CAM:1,2014-07-01T07:18:00Z,27.7650,-82.6490,10.0,0.57,280.8,1.17,'1111122,1111122,1111122' 
COMPS,ioos:station:USF.COMPS:CAM:1,2014-07-01T07:24:00Z,27.7650,-82.6490,10.0,0.23,280.43,0.97,'1111122,1111122,1111122' 
COMPS,ioos:station:USF.COMPS:CAM:1,2014-07-01T07:30:00Z,27.7650,-82.6490,10.0,0.16,232.84,0.49,'1111122,1111122,1111122' 
COMPS,ioos:station:USF.COMPS:CAM:1,2014-07-01T07:36:00Z,27.7650,-82.6490,10.0,0.32,270.85,0.88,'1111122,1111122,1111122' 
COMPS,ioos:station:USF.COMPS:CAM:1,2014-07-01T07:42:00Z,27.7650,-82.6490,10.0,0.34,281.17,0.97,'1111122,1111122,1111122' 
COMPS,ioos:station:USF.COMPS:CAM:1,2014-07-01T07:48:00Z,27.7650,-82.6490,10.0,0.59,276.8,1.07,'1111122,1111122,1111122' 
COMPS,ioos:station:USF.COMPS:CAM:1,2014-07-01T07:54:00Z,27.7650,-82.6490,10.0,0.46,255.18,1.17,'1111122,1111122,1111122' 
COMPS,ioos:station:USF.COMPS:CAM:1,2014-07-01T08:00:00Z,27.7650,-82.6490,10.0,0.61,271.93,1.27,'1111122,1111122,1111122' 
COMPS,ioos:station:USF.COMPS:CAM:1,2014-07-01T08:06:00Z,27.7650,-82.6490,10.0,1.18,273.86,2.35,'1111122,1111122,1111122' 
COMPS,ioos:station:USF.COMPS:CAM:1,2014-07-01T08:12:00Z,27.7650,-82.6490,10.0,1.26,277.84,2.15,'1111122,1111122,1111122' 
COMPS,ioos:station:USF.COMPS:CAM:1,2014-07-01T08:18:00Z,27.7650,-82.6490,10.0,0.72,274.63,1.37,'1111122,1111122,1111122' 
COMPS,ioos:station:USF.COMPS:CAM:1,2014-07-01T08:24:00Z,27.7650,-82.6490,10.0,0.19,297.57,1.17,'1111122,1111122,1111122' 
COMPS,ioos:station:USF.COMPS:CAM:1,2014-07-01T08:30:00Z,27.7650,-82.6490,10.0,0.68,283.65,1.76,'1111122,1111122,1111122' 
COMPS,ioos:station:USF.COMPS:CAM:1,2014-07-01T08:36:00Z,27.7650,-82.6490,10.0,0.59,259.25,1.37,'1111122,1111122,1111122' 
COMPS,ioos:station:USF.COMPS:CAM:1,2014-07-01T08:42:00Z,27.7650,-82.6490,10.0,0.45,276.77,0.88,'1111122,1111122,1111122' 
COMPS,ioos:station:USF.COMPS:CAM:1,2014-07-01T08:48:00Z,27.7650,-82.6490,10.0,0.28,281.73,0.97,'1111122,1111122,1111122' 
COMPS,ioos:station:USF.COMPS:CAM:1,2014-07-01T08:54:00Z,27.7650,-82.6490,10.0,0.48,254.57,1.37,'1111122,1111122,1111122' 
COMPS,ioos:station:USF.COMPS:CAM:1,2014-07-01T09:00:00Z,27.7650,-82.6490,10.0,0.12,256.23,0.49,'1111122,1111122,1111122' 
COMPS,ioos:station:USF.COMPS:CAM:1,2014-07-01T09:06:00Z,27.7650,-82.6490,10.0,0.01,266.73,0.19,'1111122,1111122,1111122' 
COMPS,ioos:station:USF.COMPS:CAM:1,2014-07-01T09:12:00Z,27.7650,-82.6490,10.0,0.68,267.46,1.47,'1111122,1111122,1111122' 
COMPS,ioos:station:USF.COMPS:CAM:1,2014-07-01T09:18:00Z,27.7650,-82.6490,10.0,0.13,334.86,1.27,'1111122,1111122,1111122' 
COMPS,ioos:station:USF.COMPS:CAM:1,2014-07-01T09:24:00Z,27.7650,-82.6490,10.0,0.3,331.9,1.37,'1111122,1111122,1111122' 
COMPS,ioos:station:USF.COMPS:CAM:1,2014-07-01T09:30:00Z,27.7650,-82.6490,10.0,0.14,309.36,0.58,'1111122,1111122,1111122' 
COMPS,ioos:station:USF.COMPS:CAM:1,2014-07-01T09:36:00Z,27.7650,-82.6490,10.0,0.04,22.66,0.49,'1111122,1111122,1111122' 
COMPS,ioos:station:USF.COMPS:CAM:1,2014-07-01T09:42:00Z,27.7650,-82.6490,10.0,0.37,277.92,1.07,'1111122,1111122,1111122' 
COMPS,ioos:station:USF.COMPS:CAM:1,2014-07-01T09:48:00Z,27.7650,-82.6490,10.0,0.63,335.58,1.47,'1111122,1111122,1111122' 
COMPS,ioos:station:USF.COMPS:CAM:1,2014-07-01T09:54:00Z,27.7650,-82.6490,10.0,0.17,298.6,0.58,'1111122,1111122,1111122' 
COMPS,ioos:station:USF.COMPS:CAM:1,2014-07-01T10:00:00Z,27.7650,-82.6490,10.0,0.07,104.87,0.29,'1111122,1111122,1111122' 
COMPS,ioos:station:USF.COMPS:CAM:1,2014-07-01T10:06:00Z,27.7650,-82.6490,10.0,0.03,245.29,0.29,'1111122,1111122,1111122' 
COMPS,ioos:station:USF.COMPS:CAM:1,2014-07-01T10:12:00Z,27.7650,-82.6490,10.0,0.29,249.01,0.88,'1111122,1111122,1111122' 
COMPS,ioos:station:USF.COMPS:CAM:1,2014-07-01T10:24:00Z,27.7650,-82.6490,10.0,0.37,278.64,1.27,'1111122,1111122,1111122' 
COMPS,ioos:station:USF.COMPS:CAM:1,2014-07-01T10:30:00Z,27.7650,-82.6490,10.0,0.84,274.7,1.66,'1111122,1111122,1111122' 
COMPS,ioos:station:USF.COMPS:CAM:1,2014-07-01T10:36:00Z,27.7650,-82.6490,10.0,0.72,271.29,1.56,'1111122,1111122,1111122' 
COMPS,ioos:station:USF.COMPS:CAM:1,2014-07-01T10:42:00Z,27.7650,-82.6490,10.0,0.48,288.94,0.97,'1111122,1111122,1111122' 
COMPS,ioos:station:USF.COMPS:CAM:1,2014-07-01T10:48:00Z,27.7650,-82.6490,10.0,0.97,275.78,1.76,'1111122,1111122,1111122' 
COMPS,ioos:station:USF.COMPS:CAM:1,2014-07-01T10:54:00Z,27.7650,-82.6490,10.0,0.69,275.45,1.17,'1111122,1111122,1111122' 
COMPS,ioos:station:USF.COMPS:CAM:1,2014-07-01T11:00:00Z,27.7650,-82.6490,10.0,0.43,295.32,1.17,'1111122,1111122,1111122' 
COMPS,ioos:station:USF.COMPS:CAM:1,2014-07-01T11:06:00Z,27.7650,-82.6490,10.0,0.37,311.59,1.07,'1111122,1111122,1111122' 
COMPS,ioos:station:USF.COMPS:CAM:1,2014-07-01T11:12:00Z,27.7650,-82.6490,10.0,0.26,317.66,0.78,'1111122,1111122,1111122' 
COMPS,ioos:station:USF.COMPS:CAM:1,2014-07-01T11:18:00Z,27.7650,-82.6490,10.0,0.4,293.72,0.97,'1111122,1111122,1111122' 
COMPS,ioos:station:USF.COMPS:CAM:1,2014-07-01T11:24:00Z,27.7650,-82.6490,10.0,0.48,280.21,1.27,'1111122,1111122,1111122' 
COMPS,ioos:station:USF.COMPS:CAM:1,2014-07-01T11:30:00Z,27.7650,-82.6490,10.0,0.36,13.13,1.47,'1111122,1111122,1111122' 
COMPS,ioos:station:USF.COMPS:CAM:1,2014-07-01T11:36:00Z,27.7650,-82.6490,10.0,0.4,43.98,1.07,'1111122,1111122,1111122' 
COMPS,ioos:station:USF.COMPS:CAM:1,2014-07-01T11:42:00Z,27.7650,-82.6490,10.0,0.55,32.48,1.96,'1111122,1111122,1111122' 
COMPS,ioos:station:USF.COMPS:CAM:1,2014-07-01T11:48:00Z,27.7650,-82.6490,10.0,0.39,30.88,1.37,'1111122,1111122,1111122' 
COMPS,ioos:station:USF.COMPS:CAM:1,2014-07-01T11:54:00Z,27.7650,-82.6490,10.0,0.62,5.67,2.05,'1111122,1111122,1111122' 
COMPS,ioos:station:USF.COMPS:CAM:1,2014-07-01T12:00:00Z,27.7650,-82.6490,10.0,0.54,21.02,1.86,'1111122,1111122,1111122' 
COMPS,ioos:station:USF.COMPS:CAM:1,2014-07-01T12:06:00Z,27.7650,-82.6490,10.0,0.45,32.84,2.05,'1111122,1111122,1111122' 
COMPS,ioos:station:USF.COMPS:CAM:1,2014-07-01T12:12:00Z,27.7650,-82.6490,10.0,0.88,58.85,1.66,'1111122,1111122,1111122' 
COMPS,ioos:station:USF.COMPS:CAM:1,2014-07-01T12:18:00Z,27.7650,-82.6490,10.0,0.4,51.67,1.47,'1111122,1111122,1111122' 
COMPS,ioos:station:USF.COMPS:CAM:1,2014-07-01T12:24:00Z,27.7650,-82.6490,10.0,1.06,53.2,2.35,'1111122,1111122,1111122' 
COMPS,ioos:station:USF.COMPS:CAM:1,2014-07-01T12:30:00Z,27.7650,-82.6490,10.0,0.73,61.7,1.47,'1111122,1111122,1111122' 
COMPS,ioos:station:USF.COMPS:CAM:1,2014-07-01T12:36:00Z,27.7650,-82.6490,10.0,0.83,33.19,1.66,'1111122,1111122,1111122' 
COMPS,ioos:station:USF.COMPS:CAM:1,2014-07-01T12:42:00Z,27.7650,-82.6490,10.0,0.53,328.14,2.15,'1111122,1111122,1111122' 
COMPS,ioos:station:USF.COMPS:CAM:1,2014-07-01T12:48:00Z,27.7650,-82.6490,10.0,0.55,8.78,1.37,'1111122,1111122,1111122' 
COMPS,ioos:station:USF.COMPS:CAM:1,2014-07-01T12:54:00Z,27.7650,-82.6490,10.0,0.2,281.53,0.88,'1111122,1111122,1111122' 
COMPS,ioos:station:USF.COMPS:CAM:1,2014-07-01T13:00:00Z,27.7650,-82.6490,10.0,0.41,111.82,1.37,'1111122,1111122,1111122' 
COMPS,ioos:station:USF.COMPS:CAM:1,2014-07-01T13:06:00Z,27.7650,-82.6490,10.0,0.65,265.48,1.47,'1111122,1111122,1111122' 
COMPS,ioos:station:USF.COMPS:CAM:1,2014-07-01T13:12:00Z,27.7650,-82.6490,10.0,0.3,352.07,0.97,'1111122,1111122,1111122' 
COMPS,ioos:station:USF.COMPS:CAM:1,2014-07-01T13:18:00Z,27.7650,-82.6490,10.0,0.62,299.95,1.86,'1111122,1111122,1111122' 
COMPS,ioos:station:USF.COMPS:CAM:1,2014-07-01T13:24:00Z,27.7650,-82.6490,10.0,1.03,51.14,2.15,'1111122,1111122,1111122' 
COMPS,ioos:station:USF.COMPS:CAM:1,2014-07-01T13:30:00Z,27.7650,-82.6490,10.0,0.68,27.37,1.56,'1111122,1111122,1111122' 
COMPS,ioos:station:USF.COMPS:CAM:1,2014-07-01T13:36:00Z,27.7650,-82.6490,10.0,1.26,68.11,2.64,'1111122,1111122,1111122' 
COMPS,ioos:station:USF.COMPS:CAM:1,2014-07-01T13:42:00Z,27.7650,-82.6490,10.0,0.47,126.77,1.27,'1111122,1111122,1111122' 
COMPS,ioos:station:USF.COMPS:CAM:1,2014-07-01T13:48:00Z,27.7650,-82.6490,10.0,1.34,84.23,2.25,'1111122,1111122,1111122' 
COMPS,ioos:station:USF.COMPS:CAM:1,2014-07-01T13:54:00Z,27.7650,-82.6490,10.0,0.53,139.07,1.66,'1111122,1111122,1111122' 
COMPS,ioos:station:USF.COMPS:CAM:1,2014-07-01T14:00:00Z,27.7650,-82.6490,10.0,0.54,275.19,1.17,'1111122,1111122,1111122' 
COMPS,ioos:station:USF.COMPS:CAM:1,2014-07-01T14:06:00Z,27.7650,-82.6490,10.0,0.25,160.84,1.07,'1111122,1111122,1111122' 
COMPS,ioos:station:USF.COMPS:CAM:1,2014-07-01T14:12:00Z,27.7650,-82.6490,10.0,1.34,289.81,2.94,'1111122,1111122,1111122' 
COMPS,ioos:station:USF.COMPS:CAM:1,2014-07-01T14:18:00Z,27.7650,-82.6490,10.0,1.24,6.58,2.94,'1111122,1111122,1111122' 
COMPS,ioos:station:USF.COMPS:CAM:1,2014-07-01T14:24:00Z,27.7650,-82.6490,10.0,0.53,4.55,1.76,'1111122,1111122,1111122' 
COMPS,ioos:station:USF.COMPS:CAM:1,2014-07-01T14:30:00Z,27.7650,-82.6490,10.0,1.46,289.76,2.74,'1111122,1111122,1111122' 
COMPS,ioos:station:USF.COMPS:CAM:1,2014-07-01T14:36:00Z,27.7650,-82.6490,10.0,1.91,299.75,3.62,'1111122,1111122,1111122' 
COMPS,ioos:station:USF.COMPS:CAM:1,2014-07-01T14:42:00Z,27.7650,-82.6490,10.0,1.96,264.43,3.62,'1111122,1111122,1111122' 
COMPS,ioos:station:USF.COMPS:CAM:1,2014-07-01T14:48:00Z,27.7650,-82.6490,10.0,1.54,276.29,3.52,'1111122,1111122,1111122' 
COMPS,ioos:station:USF.COMPS:CAM:1,2014-07-01T14:54:00Z,27.7650,-82.6490,10.0,2.13,294.53,5.09,'1111122,1111122,1111122' 
COMPS,ioos:station:USF.COMPS:CAM:1,2014-07-01T15:00:00Z,27.7650,-82.6490,10.0,2.21,292.96,4.7,'1111122,1111122,1111122' 
COMPS,ioos:station:USF.COMPS:CAM:1,2014-07-01T15:06:00Z,27.7650,-82.6490,10.0,1.44,326.25,2.45,'1111122,1111122,1111122' 
COMPS,ioos:station:USF.COMPS:CAM:1,2014-07-01T15:12:00Z,27.7650,-82.6490,10.0,2.38,309.35,4.8,'1111122,1111122,1111122' 
COMPS,ioos:station:USF.COMPS:CAM:1,2014-07-01T15:18:00Z,27.7650,-82.6490,10.0,2.47,286.19,4.01,'1111122,1111122,1111122' 
COMPS,ioos:station:USF.COMPS:CAM:1,2014-07-01T15:24:00Z,27.7650,-82.6490,10.0,1.88,278.92,3.72,'1111122,1111122,1111122' 
COMPS,ioos:station:USF.COMPS:CAM:1,2014-07-01T15:30:00Z,27.7650,-82.6490,10.0,1.55,279.68,3.03,'1111122,1111122,1111122' 
COMPS,ioos:station:USF.COMPS:CAM:1,2014-07-01T15:36:00Z,27.7650,-82.6490,10.0,2.27,271.61,5.29,'1111122,1111122,1111122' 
COMPS,ioos:station:USF.COMPS:CAM:1,2014-07-01T15:42:00Z,27.7650,-82.6490,10.0,2.36,265.75,3.82,'1111122,1111122,1111122' 
COMPS,ioos:station:USF.COMPS:CAM:1,2014-07-01T15:48:00Z,27.7650,-82.6490,10.0,1.53,279.86,3.92,'1111122,1111122,1111122' 
COMPS,ioos:station:USF.COMPS:CAM:1,2014-07-01T15:54:00Z,27.7650,-82.6490,10.0,2.12,343.54,5.09,'1111122,1111122,1111122' 
COMPS,ioos:station:USF.COMPS:CAM:1,2014-07-01T16:00:00Z,27.7650,-82.6490,10.0,1.72,20.06,3.43,'1111122,1111122,1111122' 
COMPS,ioos:station:USF.COMPS:CAM:1,2014-07-01T16:06:00Z,27.7650,-82.6490,10.0,2.23,343.71,4.41,'1111122,1111122,1111122' 
COMPS,ioos:station:USF.COMPS:CAM:1,2014-07-01T16:12:00Z,27.7650,-82.6490,10.0,1.82,336.22,4.41,'1111122,1111122,1111122' 
COMPS,ioos:station:USF.COMPS:CAM:1,2014-07-01T16:18:00Z,27.7650,-82.6490,10.0,2.4,310.45,4.31,'1111122,1111122,1111122' 
COMPS,ioos:station:USF.COMPS:CAM:1,2014-07-01T16:24:00Z,27.7650,-82.6490,10.0,1.79,33.77,4.01,'1111122,1111122,1111122' 
COMPS,ioos:station:USF.COMPS:CAM:1,2014-07-01T16:30:00Z,27.7650,-82.6490,10.0,1.82,341.6,3.82,'1111122,1111122,1111122' 
COMPS,ioos:station:USF.COMPS:CAM:1,2014-07-01T16:36:00Z,27.7650,-82.6490,10.0,1.9,320.82,4.21,'1111122,1111122,1111122' 
COMPS,ioos:station:USF.COMPS:CAM:1,2014-07-01T16:42:00Z,27.7650,-82.6490,10.0,2.05,290.2,5.09,'1111122,1111122,1111122' 
COMPS,ioos:station:USF.COMPS:CAM:1,2014-07-01T16:48:00Z,27.7650,-82.6490,10.0,1.58,311.3,4.21,'1111122,1111122,1111122' 
COMPS,ioos:station:USF.COMPS:CAM:1,2014-07-01T16:54:00Z,27.7650,-82.6490,10.0,1.66,282.43,3.33,'1111122,1111122,1111122' 
COMPS,ioos:station:USF.COMPS:CAM:1,2014-07-01T17:00:00Z,27.7650,-82.6490,10.0,2.44,279.49,4.6,'1111122,1111122,1111122' 
COMPS,ioos:station:USF.COMPS:CAM:1,2014-07-01T17:06:00Z,27.7650,-82.6490,10.0,0.77,246.38,2.84,'1111122,1111122,1111122' 
COMPS,ioos:station:USF.COMPS:CAM:1,2014-07-01T17:12:00Z,27.7650,-82.6490,10.0,1.18,328.55,3.23,'1111122,1111122,1111122' 
COMPS,ioos:station:USF.COMPS:CAM:1,2014-07-01T17:18:00Z,27.7650,-82.6490,10.0,1.61,359.2,4.6,'1111122,1111122,1111122' 
COMPS,ioos:station:USF.COMPS:CAM:1,2014-07-01T17:24:00Z,27.7650,-82.6490,10.0,1.77,343.48,4.21,'1111122,1111122,1111122' 
COMPS,ioos:station:USF.COMPS:CAM:1,2014-07-01T17:30:00Z,27.7650,-82.6490,10.0,0.66,70.66,1.56,'1111122,1111122,1111122' 
COMPS,ioos:station:USF.COMPS:CAM:1,2014-07-01T17:36:00Z,27.7650,-82.6490,10.0,1.66,280.27,4.21,'1111122,1111122,1111122' 
COMPS,ioos:station:USF.COMPS:CAM:1,2014-07-01T17:42:00Z,27.7650,-82.6490,10.0,0.83,273.92,2.45,'1111122,1111122,1111122' 
COMPS,ioos:station:USF.COMPS:CAM:1,2014-07-01T17:48:00Z,27.7650,-82.6490,10.0,1.38,284.41,3.52,'1111122,1111122,1111122' 
COMPS,ioos:station:USF.COMPS:CAM:1,2014-07-01T17:54:00Z,27.7650,-82.6490,10.0,1.91,294.33,3.82,'1111122,1111122,1111122' 
COMPS,ioos:station:USF.COMPS:CAM:1,2014-07-01T18:00:00Z,27.7650,-82.6490,10.0,1.95,284.37,3.62,'1111122,1111122,1111122' 
COMPS,ioos:station:USF.COMPS:CAM:1,2014-07-01T18:06:00Z,27.7650,-82.6490,10.0,1.64,304.22,4.11,'1111122,1111122,1111122' 
COMPS,ioos:station:USF.COMPS:CAM:1,2014-07-01T18:12:00Z,27.7650,-82.6490,10.0,2.1,261.28,4.9,'1111122,1111122,1111122' 
COMPS,ioos:station:USF.COMPS:CAM:1,2014-07-01T18:18:00Z,27.7650,-82.6490,10.0,2.73,250.53,5.87,'1111122,1111122,1111122' 
COMPS,ioos:station:USF.COMPS:CAM:1,2014-07-01T18:24:00Z,27.7650,-82.6490,10.0,1.9,262.22,3.72,'1111122,1111122,1111122' 
COMPS,ioos:station:USF.COMPS:CAM:1,2014-07-01T18:30:00Z,27.7650,-82.6490,10.0,1.65,333.72,3.92,'1111122,1111122,1111122' 
COMPS,ioos:station:USF.COMPS:CAM:1,2014-07-01T18:36:00Z,27.7650,-82.6490,10.0,3.19,262.28,6.27,'1111122,1111122,1111122' 
COMPS,ioos:station:USF.COMPS:CAM:1,2014-07-01T18:42:00Z,27.7650,-82.6490,10.0,2.89,285.22,5.58,'1111122,1111122,1111122' 
COMPS,ioos:station:USF.COMPS:CAM:1,2014-07-01T18:48:00Z,27.7650,-82.6490,10.0,2.8,266.99,4.6,'1111122,1111122,1111122' 
COMPS,ioos:station:USF.COMPS:CAM:1,2014-07-01T18:54:00Z,27.7650,-82.6490,10.0,2.89,271.67,4.7,'1111122,1111122,1111122' 
COMPS,ioos:station:USF.COMPS:CAM:1,2014-07-01T19:00:00Z,27.7650,-82.6490,10.0,2.16,287.19,3.62,'1111122,1111122,1111122' 
COMPS,ioos:station:USF.COMPS:CAM:1,2014-07-01T19:06:00Z,27.7650,-82.6490,10.0,2.03,289.62,3.72,'1111122,1111122,1111122' 
COMPS,ioos:station:USF.COMPS:CAM:1,2014-07-01T19:12:00Z,27.7650,-82.6490,10.0,2.3,324.14,5.29,'1111122,1111122,1111122' 
COMPS,ioos:station:USF.COMPS:CAM:1,2014-07-01T19:18:00Z,27.7650,-82.6490,10.0,2.74,281.15,4.5,'1111122,1111122,1111122' 
COMPS,ioos:station:USF.COMPS:CAM:1,2014-07-01T19:24:00Z,27.7650,-82.6490,10.0,2.77,265.1,4.99,'1111122,1111122,1111122' 
COMPS,ioos:station:USF.COMPS:CAM:1,2014-07-01T19:30:00Z,27.7650,-82.6490,10.0,2.17,270.99,4.31,'1111122,1111122,1111122' 
COMPS,ioos:station:USF.COMPS:CAM:1,2014-07-01T19:36:00Z,27.7650,-82.6490,10.0,2.97,295.71,5.87,'1111122,1111122,1111122' 